Hourly Weather Nottingham

Today, 12 July, Sunday

Time Temperature Precipitation Wind Pressure Humidity
00:00 +10°C° 0 mm 1 mps 765 mmHg 84%
01:00 +10°C° 0 mm 1 mps 765 mmHg 84%
02:00 +9°C° 0 mm 1 mps 765 mmHg 85%
03:00 +9°C° 0 mm 1 mps 765 mmHg 85%
04:00 +10°C° 0 mm 1 mps 765 mmHg 83%
05:00 +11°C° 0 mm 1 mps 765 mmHg 80%
06:00 +11°C° 0 mm 0 mps 765 mmHg 80%
07:00 +13°C° 0 mm 1 mps 765 mmHg 75%
08:00 +15°C° 0 mm 1 mps 765 mmHg 69%
09:00 +16°C° 0 mm 1 mps 765 mmHg 64%
10:00 +17°C° 0 mm 2 mps 765 mmHg 62%
11:00 +18°C° 0 mm 2 mps 766 mmHg 59%
12:00 +19°C° 0 mm 2 mps 766 mmHg 57%
13:00 +20°C° 0 mm 2 mps 765 mmHg 55%
14:00 +20°C° 0 mm 2 mps 765 mmHg 54%
15:00 +21°C° 0 mm 2 mps 764 mmHg 53%
16:00 +20°C° 0 mm 2 mps 764 mmHg 57%
17:00 +20°C° 0 mm 2 mps 764 mmHg 61%
18:00 +20°C° 0 mm 2 mps 764 mmHg 66%
19:00 +18°C° 0 mm 2 mps 764 mmHg 70%
20:00 +16°C° 0 mm 2 mps 764 mmHg 74%
21:00 +14°C° 0 mm 2 mps 764 mmHg 78%
22:00 +14°C° 0 mm 2 mps 764 mmHg 80%
23:00 +13°C° 0 mm 2 mps 764 mmHg 82%

Tomorrow, 13 July, Monday

Time Temperature Precipitation Wind Pressure Humidity
00:00 +13°C° 0 mm 2 mps 764 mmHg 84%
01:00 +12°C° 0 mm 2 mps 763 mmHg 83%
02:00 +12°C° 0 mm 2 mps 763 mmHg 83%
03:00 +11°C° 0 mm 3 mps 763 mmHg 82%
04:00 +11°C° 0 mm 3 mps 762 mmHg 79%
05:00 +12°C° 0 mm 3 mps 762 mmHg 76%
06:00 +13°C° 0 mm 4 mps 762 mmHg 73%
07:00 +13°C° 0 mm 4 mps 762 mmHg 74%
08:00 +13°C° 0 mm 4 mps 761 mmHg 76%
09:00 +13°C° 0 mm 4 mps 761 mmHg 78%
10:00 +14°C° 0 mm 4 mps 761 mmHg 78%
11:00 +15°C° 0 mm 4 mps 761 mmHg 79%
12:00 +15°C° 0 mm 4 mps 760 mmHg 79%
13:00 +17°C° 0.1 mm 5 mps 760 mmHg 77%
14:00 +19°C° 0.1 mm 5 mps 759 mmHg 76%
15:00 +21°C° 0.1 mm 6 mps 759 mmHg 74%
16:00 +20°C° 0.3 mm 6 mps 759 mmHg 77%
17:00 +20°C° 0.3 mm 5 mps 758 mmHg 80%
18:00 +19°C° 0.3 mm 5 mps 758 mmHg 83%
19:00 +18°C° 0.1 mm 4 mps 758 mmHg 85%
20:00 +17°C° 0.1 mm 3 mps 758 mmHg 88%
21:00 +14°C° 0.1 mm 3 mps 758 mmHg 91%
22:00 +14°C° 0 mm 3 mps 758 mmHg 91%
23:00 +15°C° 0 mm 2 mps 757 mmHg 92%

Day after tomorrow, 14 July, Tuesday

Time Temperature Precipitation Wind Pressure Humidity
00:00 +14°C° 0 mm 2 mps 757 mmHg 92%
01:00 +13°C° 0 mm 3 mps 757 mmHg 92%
02:00 +13°C° 0 mm 3 mps 757 mmHg 91%
03:00 +13°C° 0 mm 3 mps 757 mmHg 91%
04:00 +13°C° 0 mm 3 mps 757 mmHg 88%
05:00 +12°C° 0 mm 3 mps 757 mmHg 85%
06:00 +12°C° 0 mm 4 mps 757 mmHg 83%
07:00 +13°C° 0 mm 4 mps 757 mmHg 78%
08:00 +14°C° 0 mm 4 mps 757 mmHg 74%
09:00 +15°C° 0 mm 5 mps 757 mmHg 70%
10:00 +15°C° 0 mm 5 mps 757 mmHg 68%
11:00 +16°C° 0 mm 5 mps 757 mmHg 66%
12:00 +16°C° 0 mm 5 mps 757 mmHg 65%
13:00 +16°C° 0.1 mm 5 mps 756 mmHg 65%
14:00 +17°C° 0.1 mm 4 mps 756 mmHg 65%
15:00 +18°C° 0.1 mm 4 mps 756 mmHg 65%
16:00 +17°C° 0 mm 4 mps 756 mmHg 67%
17:00 +17°C° 0 mm 4 mps 756 mmHg 69%
18:00 +17°C° 0 mm 4 mps 756 mmHg 72%
19:00 +14°C° 0 mm 4 mps 756 mmHg 77%
20:00 +13°C° 0 mm 3 mps 756 mmHg 82%
21:00 +12°C° 0 mm 3 mps 756 mmHg 88%
22:00 +12°C° 0 mm 3 mps 756 mmHg 88%
23:00 +12°C° 0 mm 3 mps 756 mmHg 88%

15 July, Wednesday

Time Temperature Precipitation Wind Pressure Humidity
00:00 +12°C° 0 mm 3 mps 756 mmHg 87%
01:00 +12°C° 0 mm 3 mps 756 mmHg 88%
02:00 +12°C° 0 mm 3 mps 755 mmHg 88%
03:00 +12°C° 0 mm 3 mps 755 mmHg 88%
04:00 +12°C° 0 mm 3 mps 755 mmHg 89%
05:00 +12°C° 0 mm 3 mps 755 mmHg 89%
06:00 +13°C° 0 mm 3 mps 755 mmHg 90%
07:00 +13°C° 0 mm 3 mps 756 mmHg 89%
08:00 +13°C° 0 mm 3 mps 756 mmHg 89%
09:00 +14°C° 0 mm 3 mps 756 mmHg 89%
10:00 +14°C° 0.1 mm 3 mps 756 mmHg 86%
11:00 +16°C° 0.1 mm 3 mps 756 mmHg 84%
12:00 +17°C° 0.1 mm 4 mps 756 mmHg 82%
13:00 +17°C° 0.1 mm 4 mps 757 mmHg 81%
14:00 +16°C° 0.1 mm 5 mps 757 mmHg 80%
15:00 +17°C° 0.1 mm 5 mps 757 mmHg 79%
16:00 +16°C° 0 mm 5 mps 757 mmHg 81%
17:00 +17°C° 0 mm 4 mps 757 mmHg 82%
18:00 +15°C° 0 mm 4 mps 757 mmHg 84%
19:00 +16°C° 0 mm 3 mps 758 mmHg 86%
20:00 +14°C° 0 mm 3 mps 758 mmHg 87%
21:00 +15°C° 0 mm 2 mps 758 mmHg 89%
22:00 +15°C° 0 mm 2 mps 758 mmHg 89%
23:00 +14°C° 0 mm 3 mps 758 mmHg 90%

16 July, Thursday

Time Temperature Precipitation Wind Pressure Humidity
00:00 +14°C° 0 mm 3 mps 759 mmHg 91%
01:00 +14°C° 0 mm 3 mps 759 mmHg 91%
02:00 +14°C° 0 mm 3 mps 759 mmHg 91%
03:00 +14°C° 0 mm 3 mps 759 mmHg 91%
04:00 +14°C° 0 mm 3 mps 759 mmHg 90%
05:00 +14°C° 0 mm 3 mps 759 mmHg 88%
06:00 +15°C° 0 mm 4 mps 759 mmHg 87%
07:00 +17°C° 0 mm 4 mps 759 mmHg 83%
08:00 +18°C° 0 mm 4 mps 760 mmHg 80%
09:00 +19°C° 0 mm 4 mps 760 mmHg 77%
10:00 +19°C° 0 mm 4 mps 760 mmHg 76%
11:00 +19°C° 0 mm 4 mps 760 mmHg 75%
12:00 +20°C° 0 mm 3 mps 760 mmHg 74%
13:00 +20°C° 0 mm 3 mps 760 mmHg 73%
14:00 +20°C° 0 mm 3 mps 760 mmHg 73%
15:00 +21°C° 0 mm 3 mps 760 mmHg 72%
16:00 +21°C° 0 mm 3 mps 760 mmHg 73%
17:00 +21°C° 0 mm 2 mps 760 mmHg 75%
18:00 +20°C° 0 mm 2 mps 760 mmHg 77%
19:00 +20°C° 0 mm 2 mps 760 mmHg 79%
20:00 +19°C° 0 mm 2 mps 761 mmHg 82%
21:00 +18°C° 0 mm 2 mps 761 mmHg 85%
22:00 +17°C° 0 mm 2 mps 761 mmHg 87%
23:00 +16°C° 0 mm 2 mps 761 mmHg 88%

17 July, Friday

Time Temperature Precipitation Wind Pressure Humidity
00:00 +16°C° 0 mm 2 mps 761 mmHg 90%
01:00 +15°C° 0 mm 2 mps 761 mmHg 91%
02:00 +15°C° 0 mm 2 mps 761 mmHg 92%
03:00 +15°C° 0 mm 2 mps 761 mmHg 93%
04:00 +15°C° 0 mm 2 mps 761 mmHg 92%
05:00 +16°C° 0 mm 2 mps 761 mmHg 92%
06:00 +16°C° 0 mm 2 mps 761 mmHg 91%
07:00 +18°C° 0 mm 2 mps 761 mmHg 85%
08:00 +19°C° 0 mm 3 mps 761 mmHg 80%
09:00 +21°C° 0 mm 3 mps 761 mmHg 74%
10:00 +21°C° 0 mm 3 mps 761 mmHg 72%
11:00 +22°C° 0 mm 3 mps 761 mmHg 70%
12:00 +22°C° 0 mm 3 mps 761 mmHg 68%
13:00 +22°C° 0 mm 3 mps 761 mmHg 69%
14:00 +23°C° 0 mm 2 mps 760 mmHg 70%
15:00 +23°C° 0 mm 2 mps 760 mmHg 70%
16:00 +23°C° 0 mm 2 mps 760 mmHg 73%
17:00 +21°C° 0 mm 2 mps 760 mmHg 75%
18:00 +22°C° 0 mm 1 mps 760 mmHg 78%
19:00 +21°C° 0 mm 1 mps 760 mmHg 80%
20:00 +20°C° 0 mm 1 mps 760 mmHg 82%
21:00 +19°C° 0 mm 1 mps 760 mmHg 84%
22:00 +19°C° 0 mm 1 mps 760 mmHg 85%
23:00 +19°C° 0 mm 1 mps 760 mmHg 86%
Show more